Regional Weather Roundup
Issued by NWS

Home | Current Version | Previous Version | Text Only | Print | Product List | Glossary On
Versions: 1 2 3 4 5 6 7 8 9 10 11 12 13 14 15 16 17 18 19 20 21 22 23 24 25 26 27 28 29 30 31 32 33 34 35 36 37 38 39 40 41 42 43 44 45 46 47 48 49 50
000
ASHW40 PHFO 181043
RWRHI

WEATHER ROUNDUP FOR HAWAII
NATIONAL WEATHER SERVICE HONOLULU HI
1200 AM HST THU SEP 18 2014

THIS IS AN AUTOMATED REPORT THAT HAS NOT BEEN QUALITY CONTROLLED.

NOTE..."FAIR" INDICATES FEW OR NO CLOUDS BELOW 12,000 FEET WITH NO
SIGNIFICANT WEATHER AND/OR OBSTRUCTIONS TO VISIBILITY.

* - THESE SITES REPORT LIMITED FIELDS

HIZ001>004-181100-
KAUAI-NIIHAU-

CITY           SKY/WX    TMP DP  RH WIND       PRES   REMARKS
LIHUE APT      MOCLDY    80  70  71 E8        29.98F
PORT ALLEN*      N/A     77 N/A N/A NE5         N/A
POIPU*           N/A     77 N/A N/A N2          N/A
PRINCEVILLE*   NOT AVBL
KOKOLE POINT*    N/A     79 N/A N/A MISG        N/A
MOLOAA DAIRY*  NOT AVBL
WAIMEA HTS*      N/A     75  68  78 CALM        N/A
PUU OPAE*        N/A     70  64  83 CALM        N/A
PUU LUA*       NOT AVBL
MAKAHA RIDGE*  NOT AVBL
$$

HIZ005>011-181100-
OAHU-

CITY           SKY/WX    TMP DP  RH WIND       PRES   REMARKS
HONOLULU       MOCLDY    80  69  69 N6        29.96F
KALAELOA       PTCLDY    75  70  83 CALM      29.98F
KANEOHE MCB    CLEAR     77  72  84 E5        29.97F
WHEELER FIELD  CLOUDY    73  69  90 N6        29.99F
BELLOWS*         N/A    N/A N/A N/A E8          N/A
KAHUKU*          N/A    N/A N/A N/A E1          N/A
WHEELER*       NOT AVBL
WAIANAE HARBOR NOT AVBL
DILLINGHAM*      N/A     75  72  88 E2          N/A
KAHUKU TRN*      N/A     72  72 100 SE1         N/A
KAWAILOA*      NOT AVBL
KII*             N/A     79  72  78 E6G12       N/A
MAKUA RANGE*     N/A     81  70  69 E1G12       N/A
OAHU FOREST NW   N/A     70  70 100 N6G18       N/A
SCHOFIELD BRK*   N/A     72  70  94 MISG        N/A
SCHOFIELD S*   NOT AVBL
WAIANAE VLY*     N/A     72  68  88 N3G9        N/A
KUAOKALA*        N/A     75  66  73 CALM        N/A
HONOULIUULI*   NOT AVBL
MOKUOLOE IS*     N/A    N/A N/A N/A MISG        N/A
PALEHUA*         N/A     81  70  69 CALM        N/A
WAIAWA PHB*    NOT AVBL
$$

HIZ012>013-181100-
MOLOKAI-

CITY           SKY/WX    TMP DP  RH WIND       PRES   REMARKS
MOLOKAI AIRPT  PTCLDY    77  73  87 NE5       29.98F
KALAUPAPA      NOT AVBL
MAKAPULAPAI*     N/A     79  72  78 E5G12       N/A
MOLOKAI 1*       N/A     66  66 100 NE1         N/A
PUU ALII*        N/A     63  62  98 SE1         N/A
$$

HIZ016-181100-
KAHOOLAWE-

CITY           SKY/WX    TMP DP  RH WIND       PRES   REMARKS
KAHOOLAWE*       N/A     73 N/A N/A E15         N/A
HAKIOAWA*      NOT AVBL
HONOKANAIA*      N/A     79  70  74 NE8G16    29.97F
KANELOA*         N/A     75  70  83 E12G18    29.21S
KEALIALALO*    NOT AVBL
LUA MAKIKA*    NOT AVBL
$$

HIZ014>015-181100-
LANAI-

CITY           SKY/WX    TMP DP  RH WIND       PRES   REMARKS
LANAI CITY     MOCLDY    73  73 100 E8        30.03S
LANAI 1*         N/A     72  72 100 E8          N/A
$$

HIZ017>028-181100-
MAUI-

CITY           SKY/WX    TMP DP  RH WIND       PRES   REMARKS
KAHULUI        CLEAR     74  69  85 SE6       29.96F
KAPALUA-W MAUI NOT AVBL
HANA AIRPORT   CLOUDY    73  72  94 SE5       29.97F
HANA*            N/A     75 N/A N/A SE2         N/A
HALEAKALA SUMM   N/A     50   7  17 E13         N/A
MAALAEA BAY*   NOT AVBL
HALEAKALA*     NOT AVBL
KAUPO GAP*     NOT AVBL
KULA 1*          N/A     52  50  93 NE5         N/A
$$

HIZ023>026-181100-
BIG ISLAND OF HAWAII COAST AND LOWER SLOPES-

CITY           SKY/WX    TMP DP  RH WIND       PRES   REMARKS
KAILUA KONA    LGT RAIN  78  73  84 S12       29.95F
HILO           CLEAR     73  64  73 SW6       29.97F
HONOKAA*       NOT AVBL
KAWAIHAE MWT*    N/A     81 N/A N/A NE8         N/A
KAWAIHAE*        N/A     81 N/A N/A N3          N/A
SOUTH POINT*     N/A     72 N/A N/A N7          N/A
UPOLU AIRPORT*   N/A    N/A N/A N/A E9          N/A
KAMUELA*       SUNNY     59  57  94 E7        30.08F
HAKALAU*         N/A     45  43  93 W2          N/A
KALOKO-HONOKO*   N/A     77  73  88 N1        29.93F
PALI 2*          N/A     64  61  88 NW3         N/A
KEALAKOMO*       N/A     79  68  69 VRB10G18    N/A
KAUPULEHU*       N/A     75  63  64 SE6         N/A
KAPAPALA*        N/A     64  63  95 CALM        N/A
LOWER KAHUKU*  NOT AVBL
PUHE CS*       NOT AVBL
PUHO CS*         N/A     76  69  79 NE3         N/A
PTA KEAMUKU*     N/A     63  59  88 S12         N/A
WAIKOLOA*        N/A     72  61  68 E7          N/A
$$

HIZ027>028-181100-
BIG ISLAND OF HAWAII INTERIOR AND SUMMMITS-

CITY           SKY/WX    TMP DP  RH WIND       PRES   REMARKS
BRADSHAW FIELD CLOUDY    59  56  89 W1        30.33F
MK VISITOR CEN NOT AVBL
MAUNA KEA*       N/A     39 -15   9 SE9         N/A
MAUNA LOA*       N/A    N/A N/A N/A MISG        N/A
MAUNA LOA 1*     N/A    N/A N/A N/A MISG        N/A
PTA KIPUKA*      N/A     61  57  88 E2          N/A
PTA RANGE 17*    N/A     61  57  88 CALM        N/A
PTA WEST*        N/A     61  61 100 SE3         N/A
NENE CABIN*    NOT AVBL
AHUMOA*          N/A     53  50  89 E8          N/A
PTA PORTABLE*  NOT AVBL
PUU MALI*      NOT AVBL
$$

HIC003-181100-
NORTHWEST ISLANDS-

CITY           SKY/WX    TMP DP  RH WIND       PRES   REMARKS
MIDWAY ISLAND  PTCLDY    82  75  78 E9        30.09S
MIDWAY NOS*    NOT AVBL
FRENCH FRIGATE NOT AVBL
$$

PHZ110>124-180-181100-
BUOY REPORTS

STATION/POSITION TIME  TEMP    WIND        PRES    WAVE   SWELL
                       AIR SEA DIR/SP/G            HT/PER HT/DIR
                 (UTC) (F)     (DEG/KT/KT) (MB)    (FT/S) (FT/D)
BUOY 51001       NOT AVBL
BUOY 51101       NOT AVBL
BUOY 51100       1000   78     100/ 10       N/A
BUOY 51003       1000   81 83   80/  8/ 12 1014.5F   5/14   5
BUOY 51004       0922   80 81   80/ 10/ 12 1013.5F   6/13   5/180
BARBERS PT BUOY  NOT AVBL
WAIMEA BAY BUOY  1000      82                N/A     5/11   3/340
KAILUA BAY BUOY  1000      83                N/A     6/12   3/360
LANAI BUOY       NOT AVBL
BARBERS PT 2     1000      83                N/A     4/14   3/190
PAUWELA MAUI     1000      81                N/A     5/13   2/350
HILO             1000      82                N/A     5/11   3/ 10
KANEOHE BAY BUOY NOT AVBL
HANALEI KAUAI    NOT AVBL
KAHULUI HARBOR   1000   79 84   10/  7/ 12 1014.0F
HONOLULU HARBOR  1000   80      CALM  /  1 1014.8F
KILO NALU        NOT AVBL
HILO HARBOR      1000   73     210/  4/  5 1014.1F
MOKUOLOE         1000      86              1014.9F
NAWILIWILI       1000      84                N/A
WHOTS BUOY       NOT AVBL
BUOY 51028       NOT AVBL
$$

......................KEY........................................
  SKY/WX - SKY CONDITIONS/PRESENT WEATHER
  TMP    - TEMPERATURE IN FAHRENHEIT
  DWPT   - DEWPOINT IN FAHRENHEIT
  RH     - RELATIVE HUMIDITY IN PERCENT
  WIND   - DIRECTION AND SPEED /MPH FOR ISLANDS...KTS FOR BUOYS/
  PRES   - MEAN SEA LEVEL PRESSURE IN INCHES OF HG
  VSB    - VISIBILITY IN MILES
  HX     - HEAT INDEX
  WCI    - WIND CHILL INDEX
  VRB    - VARIABLE WIND DIRECTION
  N/A    - NOT AVAILABLE



USA.gov is the U.S. government's official web portal to all federal, state and local government web resources and services.